Regional Weather Roundup
Issued by NWS Kansas City/Pleasant Hill, MO

Home | Current Version | Previous Version | Graphics & Text | Print | Product List | Glossary Off
Versions: 1 2 3 4 5 6 7 8 9 10 11 12 13 14 15 16 17 18 19 20 21 22 23 24 25 26 27 28 29 30 31 32 33 34 35 36 37 38 39 40 41 42 43 44 45 46 47 48 49 50

000
ASUS43 KEAX 300210
RWREAX

WEATHER ROUNDUP FOR EASTERN KANSAS AND NORTHWEST MISSOURI
NATIONAL WEATHER SERVICE KANSAS CITY/PLEASANT HILL MO
900 PM CDT WED JUL 29 2015

KSZ040-057-103>105-MOZ028-029-037-043-300300-
...KANSAS CITY METROPOLITAN AREA...

CITY           SKY/WX    TMP DP  RH WIND       PRES   REMARKS
K.C. INTL      PTCLDY    76  67  73 N3        30.14S
K.C. DOWNTOWN  CLEAR     79  65  62 N5        30.13S
LEES SUMMIT    CLEAR     77  66  68 NE5       30.15S
OLATHE - IXD   CLEAR     75  67  76 N6        30.15S
OLATHE - OJC   CLEAR     77  66  68 N5        30.14S
LAWRENCE       CLEAR     73  70  90 N6        30.14S

$$

MOZ001>008-011>017-020>025-030>033-038>040-044>046-053-054-300300-
...NORTHERN AND CENTRAL MISSOURI...

CITY           SKY/WX    TMP DP  RH WIND       PRES   REMARKS
ST. JOSEPH       N/A     71  68  90 NW3       30.15R
MOSBY          CLEAR     73  68  83 CALM      30.13S
WARRENSBURG    CLEAR     73  66  78 N5        30.13S
WHITEMAN AFB   CLEAR     74  66  76 E2        30.12S
CLINTON          N/A     75  66  73 NE3       30.13R
SEDALIA        CLEAR     74  66  76 CALM      30.14S
WARSAW         NOT AVBL
CHILLICOTHE      N/A     73  70  90 CALM      30.14S
KIRKSVILLE     CLEAR     69  65  86 CALM      30.14R

$$

MOZ041-047>049-056>058-063>065-088>090-097-300300-
...EASTERN AND SOUTHERN MISSOURI...

CITY           SKY/WX    TMP DP  RH WIND       PRES   REMARKS
ST. LOUIS INTL NOT AVBL
SPIRIT OF STL  CLEAR     75  67  76 W3        30.08R
COLUMBIA       CLEAR     74  65  73 N6        30.13R
JEFFERSON CITY CLEAR     79  66  64 N5        30.11R
ROLLA          CLEAR     74  64  71 N3        30.12R
OSAGE BEACH    CLEAR     75  64  69 N5        30.13R
SPRINGFIELD    CLOUDY    81  69  67 NE9       30.11R
BRANSON        PTCLDY    81  73  78 NE5       30.12R
JOPLIN         CLEAR     80  71  74 N5        30.10R
WEST PLAINS    CLEAR     78  71  79 NE3       30.12R

$$

IAZ060-094-KSZ022-034>040-054-083-096-NEZ052-066-093-300300-
...KANSAS...SOUTHEAST NEBRASKA AND IOWA...

CITY           SKY/WX    TMP DP  RH WIND       PRES   REMARKS
TOPEKA         CLEAR     75  70  84 CALM      30.14S
MANHATTAN      PTCLDY    74  65  73 CALM      30.15S
EMPORIA        CLOUDY    77  67  71 NE7       30.14R
CHANUTE        MOCLDY    81  67  62 NE10      30.11S
WICHITA        MOCLDY    78  70  76 NE12      30.12S
OMAHA          PTCLDY    78  57  48 SW5       30.13S
LINCOLN        CLEAR     78  57  48 SW3       30.16S
FALLS CITY     PTCLDY    76  67  73 CALM      30.15R
LAMONI         CLEAR     74  63  68 W6        30.14R
DES MOINES     PTCLDY    74  61  63 W8        30.10S

$$




USA.gov is the U.S. government's official web portal to all federal, state and local government web resources and services.